カタログに戻る

STARLINK-34832

運用中通信VLEO
NORAD 65475·PAYLOAD·🇺🇸 United States

打ち上げ Sep 3, 2025 から Cape Canaveral Space Force Station

Loading…

次のパス (今後24時間)

TLE

最新Source: CelesTrak SupGP

元期: Sep 15, 2026, 03:40 UTC

1 65475C 25195T   26258.15326389 -.00017329  00000+0 -51214-3 0  2586
2 65475  53.1583  94.3547 0001142  82.9391 320.0304 15.34389680    16

AllMySatでSTARLINK-34832をリアルタイム追跡

Download on the App Store